Other Public Products
Issued by NWS Charleston, SC

Current Version | Previous Version | Graphics & Text | Print | Product List | Glossary On
Versions: 1 2 3 4 5 6 7 8 9 10 11 12 13 14 15 16 17 18 19 20 21 22 23 24 25 26 27 28 29 30 31 32 33 34 35 36 37 38 39 40 41 42 43 44 45 46 47 48 49 50
479 FPUS82 KCHS 241227 OPUCHS TEST...KCHS/KSAV Gateway Observations...TEST National Weather Service Charleston SC 700 AM EST TUE JAN 24 2017 NOTE: "fair" indicates few or no clouds below 12,000 feet with no significant weather and/or obstructions to visibility. SCZ050-WAZ558-NCZ071-TXZ119-213-PAZ071-DCZ001-FLZ074-172-MI076- NYZ176-178-MAZ016-IL014-TNZ027-NJZ106-GAZ044-MD014-241300- ...Gateway Observations for Charleston International... CITY SKY/WX TMP DP RH WIND PRES REMARKS Chas Airport CLEAR 49 43 80 W10 29.66R 6HR MIN TEMP: 49; 6HR MAX TEMP: 57; Seattle PTCLDY 32 30 92 SE6 30.05R WCI 26 6HR MIN TEMP: 32; 6HR MAX TEMP: 39; Charlotte CLEAR 43 39 86 W7 29.60R 6HR MIN TEMP: 41; 6HR MAX TEMP: 47; Dallas DFW MOCLDY 47 39 74 S7 29.66R 6HR MIN TEMP: 45; 6HR MAX TEMP: 56; Dallas Love MOCLDY 52 38 58 SE13 29.68S 6HR MIN TEMP: 50; 6HR MAX TEMP: 57; Philladelphia LGT RAIN 37 34 89 N18G26 29.39F FOG WCI 27 6HR MIN TEMP: 37; 6HR MAX TEMP: 39; 6HR PCP: 0.14; Wash National CLOUDY 39 37 92 NW16 29.50R WCI 30 6HR MIN TEMP: 38; 6HR MAX TEMP: 39; 6HR PCP: 0.03; Baltimore DRIZZLE 37 37 100 NW10 29.47S FOG WCI 30 6HR MIN TEMP: 37; 6HR MAX TEMP: 38; 6HR PCP: 0.01; Miami PTCLDY 63 57 81 SW5 29.89R 6HR MIN TEMP: 63; 6HR MAX TEMP: 67; Detroit LGT RAIN 40 39 97 NW3 29.74R FOG 6HR MIN TEMP: 39; 6HR MAX TEMP: 41; 6HR PCP: 0.04; Newark DRIZZLE 36 34 92 N18G29 29.36F FOG WCI 26 6HR MIN TEMP: 36; 6HR MAX TEMP: 38; 6HR PCP: 0.26; Laguardia LGT RAIN 38 35 89 N17G24 29.35F FOG WCI 28 6HR MIN TEMP: 39; 6HR MAX TEMP: 40; 6HR PCP: 0.29; J F K LGT RAIN 39 36 89 N25G35 29.33F FOG WCI 28 6HR MIN TEMP: 38; 6HR MAX TEMP: 39; 6HR PCP: 0.32; Boston Logan LGT RAIN 40 39 97 NE30G41 29.52F FOG WCI 28 6HR MIN TEMP: 37; 6HR MAX TEMP: 40; 6HR PCP: 0.55; Ft. Lauderdale PTCLDY 63 56 78 W8 29.86R 6HR MIN TEMP: 63; 6HR MAX TEMP: 64; Chicago O`Hare CLOUDY 36 32 85 NW9 29.85R WCI 29 6HR MIN TEMP: 36; 6HR MAX TEMP: 38; Chicago Midway CLOUDY 38 32 79 NW7 29.86R WCI 33 6HR MIN TEMP: 38; 6HR MAX TEMP: 39; Houston Bush PTCLDY 56 52 86 S3 29.80S 6HR MIN TEMP: 48; 6HR MAX TEMP: 58; Houston Hobby PTCLDY 55 53 93 SE6 29.80F 6HR MIN TEMP: 53; 6HR MAX TEMP: 56; Nashville CLOUDY 41 33 73 N8 29.91R 6HR MIN TEMP: 41; 6HR MAX TEMP: 42; Atlanta MOCLDY 46 41 82 NW15G22 29.79R 6HR MIN TEMP: 46; 6HR MAX TEMP: 50; $$ GAZ044-118-TXZ119-213-NCZ071-DCZ001-MDZ014-506-PAZ021-071-NJZ106- NYZ176-178-MAZ106-OHZ011-021-055-MIZ076-KYZ091-ILZ014-INZ047- MNZ060-241300- ...Gateway Observations for Savannah International... CITY SKY/WX TMP DP RH WIND PRES REMARKS Savannah Arpt CLEAR 49 43 80 W12 29.72R 6HR MIN TEMP: 49; 6HR MAX TEMP: 55; Atlanta MOCLDY 46 41 82 NW15G22 29.79R 6HR MIN TEMP: 46; 6HR MAX TEMP: 50; Charlotte CLEAR 43 39 86 W7 29.60R 6HR MIN TEMP: 41; 6HR MAX TEMP: 47; Dallas DFW MOCLDY 47 39 74 S7 29.66R 6HR MIN TEMP: 45; 6HR MAX TEMP: 56; Houston Bush PTCLDY 56 52 86 S3 29.80S 6HR MIN TEMP: 48; 6HR MAX TEMP: 58; Wash National CLOUDY 39 37 92 NW16 29.50R WCI 30 6HR MIN TEMP: 38; 6HR MAX TEMP: 39; 6HR PCP: 0.03; Wash Dulles MOCLDY 37 33 85 NW17 29.51R WCI 27 6HR MIN TEMP: 36; 6HR MAX TEMP: 37; 6HR PCP: 0.06; Baltimore DRIZZLE 37 37 100 NW10 29.47S FOG WCI 30 6HR MIN TEMP: 37; 6HR MAX TEMP: 38; 6HR PCP: 0.01; Philadelphia LGT RAIN 37 34 89 N18G26 29.39F FOG WCI 27 6HR MIN TEMP: 37; 6HR MAX TEMP: 39; 6HR PCP: 0.14; Newark DRIZZLE 36 34 92 N18G29 29.36F FOG WCI 26 6HR MIN TEMP: 36; 6HR MAX TEMP: 38; 6HR PCP: 0.26; Laguardia LGT RAIN 38 35 89 N17G24 29.35F FOG WCI 28 6HR MIN TEMP: 39; 6HR MAX TEMP: 40; 6HR PCP: 0.29; J F K LGT RAIN 39 36 89 N25G35 29.33F FOG WCI 28 6HR MIN TEMP: 38; 6HR MAX TEMP: 39; 6HR PCP: 0.32; Boston LGT RAIN 40 39 97 NE30G41 29.52F FOG WCI 28 6HR MIN TEMP: 37; 6HR MAX TEMP: 40; 6HR PCP: 0.55; Pittsburg LGT SNOW 36 36 100 W8 29.63R FOG WCI 30 6HR MIN TEMP: 36; 6HR MAX TEMP: 36; 6HR PCP: TRACE; Akron LGT RAIN 40 37 89 W9 29.65S FOG WCI 34 6HR MIN TEMP: 38; 6HR MAX TEMP: 40; 6HR PCP: 0.02; Cleveland LGT RAIN 36 32 85 N9 29.74R WCI 29 6HR MIN TEMP: 36; 6HR MAX TEMP: 40; 6HR PCP: 0.16; Cincinnati CLOUDY 41 39 93 W12 29.80R 6HR MIN TEMP: 40; 6HR MAX TEMP: 42; 6HR PCP: TRACE; Columbus N/A 40 40 98 NW9 29.74R WCI 34 Detroit LGT RAIN 40 39 97 NW3 29.74R FOG 6HR MIN TEMP: 39; 6HR MAX TEMP: 41; 6HR PCP: 0.04; Chicago O`Hare CLOUDY 36 32 85 NW9 29.85R WCI 29 6HR MIN TEMP: 36; 6HR MAX TEMP: 38; Minneapolis CLOUDY 32 25 75 N3 29.88R 6HR MIN TEMP: 32; 6HR MAX TEMP: 33; Indianapolis CLOUDY 39 33 79 NW12 29.84R WCI 32 6HR MIN TEMP: 39; 6HR MAX TEMP: 40; $$

USA.gov is the U.S. government's official web portal to all federal, state and local government web resources and services.